Location: *
(37.5724°S, 58.0067°E)
Time: 20:22:51
(UTC+00:00)

Delta 2 Rocket - Pass Details

Date: 26 September 2020
Orbit: 415 x 807 km, 35.6° (Epoch: 28 October)

Event Time Altitude Azimuth Distance (km) Brightness Sun altitude
Rises 14:38:04 0° 277° (W) 3,318 9.2 -6.7°
Reaches altitude 10° 14:40:36 10° 279° (W) 2,396 8.0 -7.2°
Maximum altitude 14:46:20 74° 2° (N) 838 4.2 -8.4°
Enters shadow 14:51:34 12° 86° (E) 2,198 5.7 -9.4°
